SL-6 R/B(2)

Satellite information

Favourite Embed

Satellite Type and Status

ROCKET BODYIN ORBIT

Key statistics

Satellite SL-6 R/B(2) at a glance.

Uptime

14809

Days in orbit

Revolutions

≈ 2.0

Per day

Orbit

HEO

HEO

Inclination

62.5

Latest

Satellite identification and parameters

Extended collection of information and parameters for SL-6 R/B(2).

Object identification

Identified? True

Debris? False

Object name: SL-6 R/B(2)

International designator: 1985-040D

Object number (NORAD): 15741

Object ID (CCSDS): 15741

Country: COMMONWEALTH OF INDEPENDENT STATES (CIS)

Current information (Y/N): Y

RCS size: LARGE

Orbital parameters

Period: 731.185 minutes

Inclination: 62.5048 deg

SMA: 26885.091 km

Apoapsis: 40597.281 km

Periapsis: 416.631 km

RAAN: 318.2362 deg

Eccentricy: 0.74726639

Argument of periapsis: 255.4283 deg

Mean anomaly: 18.5388 deg

Mean motion: 1.96940706 rev/day

Mean motion (dot): -0.00000069 rev/day2

B* drag term: 0.00046651875 1/REarth

Two-line elements (TLE)

Creation date: Dec. 13, 2025, 5:47 p.m.

Reference frame: TEME

Reference center: EARTH

Epoch: Dec. 12, 2025, 9:31 p.m. UTC

TLE line 0: 0 SL-6 R/B(2)

TLE line 1: 1 15741U 85040D 25346.89716630 -.00000069 00000-0 46652-3 0 9997

TLE line 2: 2 15741 62.5048 318.2362 7472664 255.4283 18.5388 1.96940706291338

Live tracking on map

Real-time ground track for satellite SL-6 R/B(2).

In-orbit conjunctions

There are no conjunctions computed for SL-6 R/B(2), at the moment. Check back to stay up to date, as we update our databases every day.

Go to all conjunctions

Associated space launch

Molniya communication satellites operating from a highly elliptical orbit

SL-6 R/B(2) was lifted into orbit during the mission ‘Molniya-M | Molniya-3 39L’, on board a Molniya-M space rocket.

The launch took place on May 29, 1985, 7:40 a.m. from 43/4 (43R).

For more information about the launch, click the button.

Launch to space Molniya-M | Molniya-3 39L
Molniya-M | Molniya-3 39L

Agency: N/A

Status: Launch Successful

Launch date: May 29, 1985, 7:40 a.m. UTC

Rocket: Molniya-M

Launch pad: 43/4 (43R)

Location: Plesetsk Cosmodrome, Russian Federation

...

Latest news about this satellite

There are no fresh news available about this satellite. Check back as we update our databases every day.


Newsletter sign-up

Weekly statistics, charts and insights to help you stay on top of the space industry.